Location: Unspecified
(0.0000°N, 0.0000°E)
Time: 19:19:03
(UTC+02:00)

HO-68 - Visible Passes

Search period start: 29 May 2016 00:00
Search period end: 08 June 2016 00:00
Orbit: 1193 x 1205 km, 100.1° (Epoch: 29 May)

Date Brightness Start Highest point End Pass type
(mag) Time Alt. Az. Time Alt. Az. Time Alt. Az.
29 May ? 21:33:57 34° SE 21:37:01 59° ENE 21:43:59 10° N visible
29 May ? 23:23:24 14° WSW 23:24:21 14° WSW 23:27:49 10° WNW visible
30 May ? 21:16:44 26° SE 21:20:09 41° ENE 21:26:45 10° N visible
30 May ? 23:06:11 20° WSW 23:07:32 21° WSW 23:12:39 10° WNW visible
31 May ? 20:59:31 19° ESE 21:03:18 29° ENE 21:09:14 10° NNE visible
31 May ? 22:48:58 28° SW 22:50:41 31° WSW 22:56:47 10° NW visible
01 Jun ? 20:42:18 12° ESE 20:46:28 20° ENE 20:51:20 10° NNE visible
01 Jun ? 22:31:45 36° SW 22:33:51 44° WSW 22:40:32 10° NW visible
02 Jun ? 20:26:37 10° E 20:29:38 13° ENE 20:32:39 10° NE visible
02 Jun ? 22:14:31 41° SSW 22:16:59 62° WSW 22:24:01 10° NNW visible
03 Jun ? 21:57:19 41° SSE 22:00:08 87° WSW 22:07:16 10° NNW visible
04 Jun ? 21:40:06 36° SSE 21:43:16 68° ENE 21:50:20 10° N visible
04 Jun ? 23:29:32 11° WSW 23:30:35 12° WSW 23:32:50 10° W visible
05 Jun ? 21:22:53 28° SE 21:26:24 48° ENE 21:33:11 10° N visible
05 Jun ? 23:12:19 17° WSW 23:13:46 18° WSW 23:18:19 10° WNW visible
06 Jun ? 21:05:39 20° ESE 21:09:33 33° ENE 21:15:47 10° NNE visible
06 Jun ? 22:55:06 24° SW 22:56:56 27° WSW 23:02:41 10° NW visible
07 Jun ? 20:48:26 14° ESE 20:52:42 23° ENE 20:58:04 10° NNE visible
07 Jun ? 22:37:53 31° SW 22:40:06 38° WSW 22:46:34 10° NW visible
